Location: Fort Collins
(40.5850°N, 105.0840°W)
Time: 03:26:09
(UTC-06:00)

Cosmos 2297 Rocket - Visible Passes

Search period start: 31 July 2014 00:00
Search period end: 10 August 2014 00:00
Orbit: 841 x 843 km, 71.0° (Epoch: 30 July)

Date Brightness Start Highest point End Pass type
(mag) Time Alt. Az. Time Alt. Az. Time Alt. Az.
31 Jul 4.7 01:02:44 10° W 01:05:56 15° NW 01:09:09 10° NNW visible
31 Jul 4.1 21:23:10 10° E 21:23:10 10° E 21:23:22 10° E visible
31 Jul 2.0 23:04:55 58° SSW 23:06:05 85° ESE 23:11:45 10° NNE visible
01 Aug 4.7 00:47:32 10° W 00:50:53 16° NW 00:54:16 10° NNW visible
01 Aug 2.0 22:49:15 44° SSW 22:51:06 81° ESE 22:56:45 10° NNE visible
02 Aug 4.6 00:32:20 10° W 00:35:51 17° NW 00:39:22 10° N visible
02 Aug 2.0 22:33:18 31° SSW 22:36:06 77° ESE 22:41:45 10° NNE visible
03 Aug 4.6 00:17:09 10° W 00:20:48 17° NW 00:24:28 10° N visible
03 Aug 2.1 22:16:55 18° SSW 22:21:06 73° ESE 22:26:44 10° NNE visible
04 Aug 4.6 00:01:58 10° W 00:05:45 18° NW 00:09:34 10° N visible
04 Aug 2.1 22:00:32 10° SSW 22:06:07 69° ESE 22:11:44 10° NNE visible
04 Aug 4.6 23:46:48 10° W 23:50:43 19° NW 23:54:39 10° N visible
05 Aug 2.1 21:45:34 10° S 21:51:08 65° ESE 21:56:43 10° NNE visible
05 Aug 4.6 23:31:38 10° W 23:35:41 20° NW 23:39:44 10° N visible
06 Aug 2.2 21:30:36 10° S 21:36:08 62° ESE 21:41:42 10° NNE visible
06 Aug 4.6 23:16:29 10° W 23:20:39 21° NW 23:24:49 10° N visible
07 Aug 2.2 21:15:39 10° S 21:21:09 59° ESE 21:26:41 10° NNE visible
07 Aug 4.5 23:01:21 10° WSW 23:05:36 22° NW 23:09:54 10° N visible
08 Aug 2.3 21:00:41 10° S 21:06:10 56° ESE 21:11:40 10° NNE visible
08 Aug 4.5 22:46:12 10° WSW 22:50:34 23° NW 22:54:58 10° N visible
09 Aug 2.3 20:45:44 10° S 20:51:11 53° ESE 20:56:39 10° NNE visible
09 Aug 4.5 22:31:05 10° WSW 22:35:32 24° NW 22:40:02 10° N visible
